Wind_Speed
23 24 23 23 22 22 23 24 25 23 23 22 23 23 23 22 22 23 23 23 22 23 23 23 23 23 23 23 22 22 22 22 21 20 20 20 20 20 20 19 19 20 19 19
23 23 24 24 23 23 24 24 25 25 24 24 24 23 23 23 23 24 24 24 23 24 24 23 23 22 22 23 23 22 22 22 22 22 22 22 22 22 22 21 21 20 21 21
23 23 25 24 22 23 24 25 25 26 25 24 24 24 23 24 24 24 24 24 24 24 24 24 24 23 23 23 23 23 23 23 23 23 23 23 23 23 23 23 23 22 22 22
23 23 25 23 22 23 23 24 25 25 24 24 24 24 24 25 25 24 25 25 25 25 25 24 24 24 23 23 23 23 23 23 23 23 24 24 25 25 24 24 24 24 23 24
24 23 23 22 22 22 23 23 24 25 24 24 25 25 25 25 25 25 25 25 26 26 26 25 25 24 24 24 24 23 24 24 24 25 25 25 25 25 26 25 25 25 25 25
23 23 23 20 21 22 23 23 23 24 25 25 26 25 24 24 25 26 26 26 26 26 26 26 26 25 25 25 25 25 24 24 25 25 26 26 26 26 26 26 26 27 26 26
22 23 23 22 22 22 22 22 22 23 25 25 26 25 24 25 25 26 26 26 26 26 26 26 26 26 26 26 25 25 25 25 25 26 27 27 27 27 27 27 28 28 28 28
23 23 22 22 23 23 23 23 23 24 25 25 25 25 26 26 26 26 26 26 26 27 26 26 26 26 26 26 27 27 27 27 27 28 28 28 28 28 28 29 29 29 29 28
24 23 23 23 23 24 24 24 24 25 26 26 26 26 27 27 27 27 27 27 27 27 27 27 27 27 27 27 27 28 28 29 29 30 30 30 30 30 30 30 30 30 30 30
23 23 24 24 24 25 26 26 26 27 27 27 27 27 28 27 27 27 27 27 27 28 27 27 28 28 28 28 29 30 30 30 31 31 31 31 32 32 32 32 32 32 31 32
23 23 24 23 24 25 26 26 26 27 27 27 27 27 27 27 27 27 27 27 27 28 28 27 28 29 29 30 30 31 31 31 31 32 32 32 33 33 33 34 34 33 33 33
23 23 24 23 24 25 26 26 26 26 25 26 27 27 27 27 26 27 27 27 28 28 28 28 28 29 30 30 31 31 32 32 32 32 33 33 33 33 33 34 34 33 33 34
24 24 23 23 24 24 24 24 25 25 25 26 26 26 27 26 26 26 27 28 28 28 28 28 29 29 30 31 31 31 32 32 33 33 33 33 33 33 33 33 33 34 34 34
24 24 23 23 24 23 24 25 26 26 26 26 26 27 27 28 27 28 28 28 28 28 29 29 30 30 30 31 31 32 32 33 33 34 34 34 34 34 33 33 34 34 34 34
23 23 23 23 23 23 23 24 25 25 26 26 27 27 28 28 28 29 29 29 29 28 29 30 30 30 31 31 32 32 32 33 34 34 34 34 34 35 35 34 34 34 35 35
22 22 22 22 22 23 25 25 26 26 27 27 28 28 28 29 29 29 30 30 29 29 29 30 30 30 31 31 32 32 33 33 33 33 34 33 33 33 33 34 34 34 34 35
21 21 22 22 23 24 25 25 26 26 26 26 27 27 28 28 28 29 29 29 29 30 30 30 30 30 31 31 32 32 32 32 33 33 32 32 32 32 31 31 31 32 33 34
22 22 23 24 24 24 24 25 25 25 26 25 26 26 27 27 27 27 27 28 28 29 29 29 30 30 31 31 31 31 31 32 32 32 32 31 30 29 29 29 29 29 30 30
23 23 23 24 24 24 24 24 24 25 25 25 25 25 26 26 26 26 26 27 28 28 28 28 29 30 30 31 31 31 32 31 31 31 30 30 29 28 27 26 27 27 27 27
23 23 24 24 24 24 24 24 24 24 24 24 24 25 25 26 26 26 26 27 27 27 27 27 28 28 29 30 30 30 30 30 29 29 29 28 27 26 26 26 25 25 25 25
24 24 25 25 25 24 24 24 24 24 24 25 25 25 26 26 26 26 27 27 27 27 27 28 28 29 29 30 30 29 29 29 28 28 27 27 26 25 25 24 24 24 24 24
25 25 26 26 26 26 25 25 25 25 25 26 26 26 26 26 27 26 26 27 27 27 27 28 28 29 29 29 28 28 28 28 27 26 26 25 24 24 23 23 22 23 23 24
25 26 27 27 27 27 26 27 27 26 26 27 27 27 28 27 27 27 26 26 27 27 27 28 28 28 28 27 27 26 26 25 25 24 23 22 22 22 21 21 21 21 22 23
26 26 27 27 27 27 27 26 26 26 26 27 27 28 28 28 27 27 27 28 28 28 27 27 27 27 26 26 25 25 25 24 24 23 22 22 21 21 20 20 20 20 21 21
27 27 27 27 27 26 26 26 25 25 26 26 27 27 28 27 27 27 28 28 28 27 27 27 26 26 26 26 25 25 24 23 22 21 21 20 20 20 20 20 21 20 20 21
26 26 27 27 27 26 26 26 26 26 26 27 27 27 27 27 27 27 27 27 26 26 26 26 26 25 25 25 25 25 23 21 21 20 20 20 20 19 20 20 21 21 21 21
26 27 27 27 27 27 27 27 27 27 27 27 27 28 28 28 27 27 27 26 26 26 26 26 25 25 25 25 25 24 23 22 20 20 20 20 20 20 20 20 20 21 21 22
Wind_Direction
266 265 265 265 265 266 267 268 269 270 272 273 271 272 273 274 275 277 279 281 280 281 282 282 282 281 280 278 276 275 274 272 271 270 270 269 268 268 267 266 264 263 261 259
267 266 266 265 265 266 267 269 271 271 272 273 272 272 273 274 276 278 279 280 281 282 282 282 282 281 279 277 275 275 274 272 270 269 269 270 269 268 268 266 266 266 263 260
268 268 267 266 268 268 268 269 271 271 270 269 269 271 272 274 275 278 279 280 281 283 281 281 282 281 279 277 276 275 273 272 271 269 269 269 268 267 266 266 266 265 263 262
273 273 270 269 269 270 270 268 270 270 269 268 268 269 270 272 275 278 280 280 281 283 282 281 282 280 280 277 276 275 274 272 271 270 269 268 268 267 266 265 265 263 263 261
274 275 274 270 271 271 270 269 269 270 269 268 269 270 270 272 275 279 280 281 280 280 281 281 280 279 278 277 277 276 275 274 274 273 271 269 267 266 266 265 264 262 262 262
275 277 276 273 271 271 272 272 271 271 270 271 271 272 273 274 276 279 280 280 280 280 281 281 281 278 277 277 276 275 275 275 276 275 273 271 269 268 267 266 264 263 261 260
276 277 277 274 271 271 272 274 274 273 273 273 273 276 277 275 276 278 279 279 279 280 281 281 281 279 277 276 276 276 276 276 276 275 273 271 269 268 267 266 266 264 262 260
275 277 277 275 273 274 275 275 275 275 276 276 276 277 277 276 276 277 278 278 279 279 280 280 280 280 278 277 276 276 276 275 275 275 273 272 271 270 268 266 266 265 262 259
273 275 275 273 273 275 275 276 277 277 277 277 277 277 277 277 278 278 278 278 278 279 280 281 281 280 279 278 277 276 277 276 276 275 273 272 272 271 270 268 267 265 262 258
273 273 272 272 272 274 275 276 278 278 279 278 278 279 278 278 278 279 279 279 279 279 280 281 281 280 281 280 278 278 278 278 278 277 275 274 273 272 271 269 268 266 262 259
273 272 271 272 274 275 276 277 278 279 279 280 279 279 279 279 279 281 282 281 280 280 281 281 281 281 281 282 281 279 278 278 279 279 277 276 275 273 272 270 268 266 262 259
272 271 271 271 273 275 277 278 278 279 280 280 281 281 281 282 282 282 282 282 281 282 283 283 283 283 283 282 283 282 280 279 279 279 278 277 276 274 271 269 267 266 262 260
270 271 271 271 274 276 278 280 280 281 283 283 282 283 283 284 283 282 283 283 284 284 284 284 283 284 284 283 283 283 282 280 281 280 279 278 276 274 271 268 267 265 263 261
273 274 273 274 276 278 278 280 282 283 284 284 283 283 283 283 283 283 283 284 285 285 285 285 285 285 285 285 284 284 283 282 283 282 281 278 276 274 271 268 267 265 263 260
275 275 275 276 276 278 280 282 283 283 284 283 283 284 284 284 284 285 284 285 285 285 285 286 287 287 286 286 285 285 285 285 284 284 283 281 278 274 272 270 268 266 262 258
275 275 277 279 279 280 281 283 283 284 284 284 284 284 285 286 285 285 286 285 286 286 287 288 288 288 287 287 287 287 288 287 286 285 283 281 280 277 275 271 268 265 262 259
278 277 279 280 282 282 283 285 284 285 286 285 285 285 286 287 288 287 286 286 288 289 289 289 289 288 288 289 289 289 289 289 288 286 285 282 280 278 276 273 269 265 261 258
279 278 280 283 285 285 285 285 285 286 288 287 286 287 288 289 290 289 288 288 289 290 291 291 290 288 289 290 289 290 290 290 288 287 286 284 281 280 278 275 269 265 261 258
280 279 281 284 285 287 287 287 286 286 287 288 289 289 290 291 291 290 289 290 291 291 291 291 290 290 290 291 291 291 291 290 288 286 285 283 280 279 278 274 270 265 263 260
280 280 282 286 286 286 286 285 284 285 286 288 289 290 292 293 292 291 291 292 293 293 292 292 291 291 292 292 293 293 292 290 288 286 285 283 280 278 276 273 268 265 262 260
278 280 282 284 285 286 286 286 286 285 286 288 290 291 292 294 293 292 292 293 294 295 294 293 294 295 294 295 294 292 291 291 289 287 285 282 279 276 274 270 266 264 263 261
277 279 280 282 283 285 285 285 286 286 287 288 289 290 292 294 294 293 293 294 295 295 295 296 297 297 296 297 296 293 292 290 288 286 283 280 276 274 271 268 265 265 263 262
279 280 280 281 283 284 284 285 286 287 287 287 287 288 291 293 294 293 293 294 296 296 297 298 299 298 298 298 298 296 294 292 290 286 281 278 275 273 270 267 265 264 262 262
281 281 281 281 283 285 286 285 285 285 286 287 288 289 290 292 292 292 292 293 295 296 297 298 299 300 299 298 298 298 295 292 289 286 281 276 273 270 269 267 266 265 263 265
280 281 280 281 282 284 285 285 284 284 285 286 287 288 289 291 292 292 293 294 295 295 296 296 298 300 300 299 299 298 297 295 290 286 281 276 272 269 270 267 266 266 266 268
280 281 281 281 281 282 284 285 286 287 286 286 287 288 289 291 293 295 295 296 296 296 296 295 296 298 299 299 299 299 297 294 290 285 280 277 274 271 270 268 266 266 265 265
281 282 281 281 281 281 282 284 286 287 288 287 287 288 290 292 294 295 295 295 297 298 297 296 295 296 298 297 297 298 297 293 288 283 280 277 273 270 268 266 266 265 264 264
Height
5797 5797 5797 5798 5799 5799 5799 5799 5800 5801 5802 5803 5802 5802 5802 5802 5802 5802 5801 5800 5800 5799 5798 5797 5795 5794 5793 5793 5792 5791 5790 5789 5789 5789 5789 5789 5789 5789 5790 5790 5791 5791 5792 5793
5791 5791 5790 5791 5792 5793 5793 5793 5793 5794 5795 5796 5796 5795 5795 5795 5795 5795 5795 5794 5793 5792 5791 5790 5789 5788 5787 5786 5785 5784 5784 5783 5783 5782 5782 5783 5783 5783 5783 5784 5784 5785 5785 5786
5785 5785 5784 5785 5787 5786 5786 5786 5787 5787 5790 5789 5789 5789 5789 5789 5789 5788 5788 5787 5786 5785 5784 5783 5782 5781 5780 5779 5778 5777 5777 5776 5776 5775 5776 5776 5775 5776 5776 5777 5777 5778 5779 5779
5778 5779 5778 5782 5780 5780 5779 5779 5780 5780 5781 5782 5783 5783 5782 5782 5782 5781 5781 5780 5779 5778 5776 5775 5774 5773 5772 5771 5771 5770 5769 5769 5768 5768 5768 5768 5768 5768 5769 5769 5769 5770 5771 5772
5771 5771 5771 5773 5773 5772 5772 5773 5773 5773 5774 5775 5775 5775 5775 5775 5775 5774 5773 5772 5771 5770 5769 5768 5766 5766 5765 5764 5763 5763 5762 5761 5760 5760 5760 5760 5760 5761 5761 5761 5762 5762 5763 5764
5765 5764 5765 5767 5766 5765 5766 5766 5767 5767 5767 5768 5768 5768 5769 5768 5767 5766 5765 5765 5763 5762 5761 5760 5758 5757 5757 5756 5756 5755 5754 5753 5753 5752 5752 5752 5752 5753 5753 5753 5754 5754 5755 5756
5758 5757 5758 5760 5759 5759 5760 5761 5760 5760 5760 5760 5761 5761 5761 5760 5759 5758 5757 5756 5755 5754 5753 5752 5750 5749 5749 5748 5747 5747 5746 5746 5745 5744 5744 5743 5744 5744 5744 5744 5745 5745 5746 5747
5752 5751 5754 5752 5751 5752 5752 5752 5752 5753 5753 5753 5754 5753 5753 5752 5751 5750 5749 5748 5747 5746 5745 5744 5742 5741 5740 5740 5739 5738 5738 5737 5736 5736 5735 5734 5734 5735 5735 5735 5735 5736 5737 5738
5747 5748 5746 5745 5745 5744 5744 5745 5745 5745 5746 5746 5746 5746 5745 5744 5743 5742 5741 5740 5738 5737 5736 5735 5734 5733 5732 5731 5730 5730 5729 5728 5727 5726 5726 5725 5725 5725 5725 5725 5725 5726 5727 5728
5739 5739 5739 5738 5738 5738 5738 5738 5738 5738 5738 5738 5738 5737 5736 5736 5735 5733 5732 5731 5730 5729 5728 5727 5726 5724 5723 5722 5721 5720 5719 5718 5717 5716 5715 5715 5714 5714 5714 5714 5714 5715 5716 5717
5732 5732 5731 5731 5731 5731 5731 5731 5730 5730 5730 5729 5729 5729 5728 5727 5726 5724 5723 5722 5721 5720 5719 5718 5717 5716 5714 5712 5711 5710 5709 5708 5707 5706 5705 5704 5703 5702 5702 5702 5702 5703 5705 5706
5725 5725 5724 5725 5724 5724 5723 5723 5723 5723 5723 5722 5721 5720 5719 5718 5717 5716 5714 5713 5712 5711 5710 5709 5708 5707 5705 5703 5701 5700 5699 5698 5696 5695 5694 5693 5692 5691 5690 5690 5690 5691 5692 5694
5718 5717 5717 5717 5717 5716 5716 5716 5715 5715 5715 5714 5713 5712 5711 5710 5709 5708 5706 5705 5703 5702 5701 5699 5698 5697 5695 5693 5691 5690 5688 5687 5685 5684 5682 5681 5680 5679 5679 5679 5679 5680 5681 5682
5711 5710 5710 5711 5710 5710 5709 5709 5709 5708 5707 5706 5705 5704 5703 5702 5701 5699 5698 5696 5694 5693 5692 5690 5689 5687 5685 5683 5681 5679 5678 5676 5674 5673 5671 5670 5669 5668 5667 5668 5669 5669 5670 5670
5705 5704 5704 5704 5704 5703 5703 5702 5701 5700 5699 5698 5697 5696 5695 5693 5692 5690 5689 5687 5685 5684 5682 5681 5679 5677 5675 5673 5671 5669 5667 5665 5663 5661 5659 5658 5657 5656 5656 5656 5656 5657 5657 5658
5699 5698 5698 5698 5697 5697 5696 5695 5694 5693 5692 5691 5689 5688 5686 5685 5683 5681 5680 5678 5676 5674 5673 5671 5669 5667 5665 5662 5660 5659 5657 5654 5652 5650 5648 5646 5645 5644 5644 5643 5644 5644 5645 5647
5693 5693 5692 5692 5691 5690 5689 5687 5686 5685 5684 5683 5681 5680 5678 5676 5674 5672 5671 5669 5667 5665 5663 5661 5659 5657 5655 5652 5650 5648 5646 5643 5641 5639 5637 5635 5634 5633 5632 5632 5632 5632 5633 5635
5686 5686 5685 5685 5684 5683 5681 5680 5679 5677 5676 5674 5673 5671 5669 5667 5666 5664 5662 5660 5658 5656 5654 5652 5649 5647 5645 5643 5640 5638 5636 5633 5631 5628 5627 5625 5624 5623 5622 5621 5621 5622 5623 5624
5679 5679 5678 5678 5677 5675 5674 5673 5671 5670 5668 5667 5665 5663 5661 5659 5657 5655 5653 5651 5649 5647 5645 5642 5640 5637 5635 5633 5631 5628 5626 5623 5621 5619 5617 5615 5614 5613 5612 5612 5612 5612 5613 5614
5673 5672 5671 5670 5669 5668 5666 5665 5663 5662 5660 5659 5657 5655 5654 5651 5649 5647 5645 5643 5641 5638 5636 5633 5631 5629 5627 5624 5622 5619 5616 5614 5611 5609 5608 5606 5605 5604 5604 5603 5603 5604 5604 5606
5666 5665 5664 5663 5662 5660 5659 5658 5656 5655 5653 5651 5650 5648 5646 5644 5642 5639 5637 5635 5633 5630 5628 5626 5623 5621 5618 5615 5613 5610 5607 5605 5603 5601 5599 5598 5597 5596 5595 5595 5595 5596 5597 5598
5658 5657 5656 5655 5654 5653 5652 5650 5648 5647 5645 5644 5642 5640 5638 5636 5634 5632 5629 5627 5625 5623 5620 5618 5615 5612 5609 5606 5603 5601 5599 5596 5594 5593 5591 5590 5589 5588 5588 5588 5588 5589 5589 5590
5651 5650 5648 5647 5646 5645 5644 5642 5641 5639 5638 5636 5634 5633 5630 5628 5626 5624 5622 5620 5617 5615 5612 5609 5607 5603 5601 5598 5595 5593 5591 5588 5587 5585 5584 5583 5582 5581 5581 5581 5581 5582 5583 5584
5643 5642 5641 5640 5638 5637 5636 5635 5633 5631 5630 5628 5626 5624 5622 5620 5618 5616 5614 5612 5609 5607 5604 5602 5599 5596 5593 5591 5588 5586 5583 5581 5579 5578 5577 5576 5575 5575 5575 5575 5575 5576 5576 5577
5635 5634 5633 5632 5631 5629 5628 5627 5625 5624 5622 5621 5619 5616 5614 5612 5610 5608 5606 5604 5601 5599 5597 5594 5592 5589 5586 5583 5581 5578 5576 5574 5572 5571 5570 5569 5569 5569 5569 5569 5569 5569 5570 5570
5627 5626 5625 5623 5622 5621 5620 5619 5617 5616 5614 5613 5611 5609 5607 5605 5603 5600 5598 5596 5594 5591 5589 5587 5585 5582 5579 5577 5574 5572 5570 5568 5566 5565 5564 5563 5563 5563 5563 5563 5563 5563 5563 5564
5618 5617 5616 5615 5614 5613 5612 5611 5609 5608 5606 5605 5603 5601 5599 5598 5595 5593 5591 5589 5587 5584 5582 5580 5577 5575 5573 5570 5568 5565 5563 5561 5560 5559 5558 5558 5557 5557 5557 5557 5556 5556 5557 5557